CAPE
1094 1116 1552 1261 898 53 18 18 78 26 110 99 178 359 0 90 217 312 318 589 656 407 522 1221 2512 2348 2101 2214 2250 2371 2313 2792 2919 2818 2589 2638 2781 3187 3086 3030 3061 2963 2659 2300 2256 2226 2295 2313 2242
653 1620 1303 1405 127 1 22 11 0 0 1 168 280 480 572 510 412 513 589 556 507 447 517 856 2540 2611 2604 2345 2266 2435 2459 2580 2858 2763 2680 2785 2871 2908 2818 2761 2598 2550 2565 2200 2283 2193 2014 1890 1916
494 1394 1381 423 32 26 37 15 12 17 19 49 178 324 422 674 677 752 633 687 869 1362 1350 1859 2752 2678 2531 2577 2895 2957 2853 2931 2944 2855 2652 2618 2440 2015 2166 2141 2236 2323 2396 2280 2174 2048 1902 1803 1735
1500 887 1258 1 0 16 0 0 0 22 4 104 201 229 579 870 897 882 837 1044 1394 1448 1248 2239 2712 2605 2799 2699 2769 2986 2880 2885 2893 2738 2699 2450 2291 2174 2100 2179 2217 2244 2278 2246 2189 2011 1863 1761 1653
1541 1106 227 16 40 50 34 6 1 5 0 68 267 319 586 1336 1244 1194 1239 1149 1166 1280 1333 1923 3266 3294 3092 2987 3025 3088 2892 2743 2683 2513 2105 2510 2483 2085 2136 2205 2150 2095 2070 2006 1901 1811 1687 1576 1689
560 634 135 88 41 72 8 7 20 3 42 107 268 396 564 1045 928 1313 1435 1444 1235 1226 1256 1530 2793 2716 2842 2875 2742 3076 2824 2664 2613 2510 2522 2573 2207 2056 1963 1984 2060 1963 1760 1739 1834 1805 1634 1581 1631
51 103 121 121 83 1 3 1 5 4 43 331 290 454 471 655 653 1361 1413 1454 1453 1472 1652 1830 1731 2294 2599 3128 2713 2867 2894 2624 2386 2435 2322 2220 2106 2052 2078 2074 1991 1703 1816 1821 1937 2104 1911 1950 1963
467 469 39 79 321 58 18 0 8 26 98 271 399 377 468 470 778 870 1174 1250 1492 1553 1961 2316 2147 1961 2225 2278 3075 2740 2940 2657 2354 2039 1987 2038 2168 2186 2191 2107 2289 2027 1863 1965 2107 2347 2307 2380 2482
507 89 59 2 120 257 296 216 121 85 238 370 510 412 534 423 733 842 1318 1526 1800 1561 1576 1551 2027 2489 2748 2247 2002 2939 2485 2589 2185 2012 2095 2309 1736 1425 183 0 880 2174 2090 2021 2157 2575 2835 2718 2704
5 0 18 7 109 233 18 173 413 474 516 436 178 546 524 499 527 1186 749 997 1185 1546 1611 1689 1802 2142 2315 1553 2304 2576 2195 1974 2080 2009 2521 2213 2176 2186 1113 145 961 2193 2192 2451 2599 2558 2931 2119 1554
1 0 1 118 175 278 47 637 452 566 559 498 404 585 537 566 584 537 1171 889 1451 1632 1385 1429 2631 2782 2450 2077 2301 2475 2210 1931 2066 2993 2992 2923 2831 895 2389 1242 1512 2738 2971 2266 2938 2557 2345 1823 1685
17 77 5 5 170 42 99 444 198 209 235 773 406 529 544 564 534 501 616 642 1230 1047 1538 1874 1767 2566 2812 1649 2101 2236 2207 2330 1313 2342 3252 3405 2650 2887 2678 2342 2406 2881 1995 2949 2599 2130 2616 2188 2099
22 4 0 43 37 6 96 391 464 49 534 419 316 498 575 533 510 485 513 598 1112 1127 1265 2113 2568 2869 3229 2386 3270 1674 1705 1486 2006 2587 2508 2621 3105 2958 2722 2853 2634 2747 2718 2023 2360 2592 2376 2149 2038
6 27 6 28 0 10 67 272 457 796 658 505 458 526 542 594 623 604 570 810 1003 1168 1231 1773 2524 3421 2988 3378 3664 3700 1786 1724 2404 2563 1922 1923 2274 2848 2690 2340 2597 2807 2062 2923 2382 2851 2469 2249 2164
0 6 18 2 31 16 3 252 587 782 825 792 818 782 722 677 628 660 598 919 1099 1073 1437 2063 2322 2941 3360 3431 3774 3453 3051 1491 2415 2052 2385 2843 2873 3358 2758 2581 2351 2243 2635 2886 2725 2535 2234 2198 1807
11 28 12 46 64 0 74 445 771 726 965 1106 1040 1001 1033 1064 986 855 673 822 919 1321 2131 1912 1420 2576 3068 3483 3396 3121 2640 2476 2908 3114 2207 2614 2955 3033 2843 2537 2086 2170 2484 2111 2598 2415 1955 1989 1851
11 21 18 65 33 18 34 322 714 671 653 681 1018 979 1149 1143 1485 1394 1347 1369 1979 2509 2657 2222 2361 2834 3274 3359 3581 3257 3255 3069 3128 2644 3155 2651 3056 2616 2649 2539 2626 2671 2047 1914 1849 1830 1795 1590 1277
0 10 59 68 30 66 81 210 377 328 422 531 623 584 790 843 765 1489 1650 1430 1746 2200 2207 2835 2578 3572 3143 3721 3385 3217 3025 2728 3025 3252 2838 3122 3060 2934 2257 2229 2305 1937 2052 2034 1698 1591 1614 1652 1742
32 13 1 24 89 149 69 109 200 94 213 489 558 485 454 407 1056 1173 1747 1970 1976 2119 3423 2863 3155 4129 4307 3601 3059 3403 2957 3658 2943 3465 3163 3132 3097 2351 2429 2506 2493 2349 2012 2150 2163 2045 1786 1357 1767
0 1 3 8 37 90 175 163 178 108 100 320 570 595 464 554 588 788 1000 894 1262 2688 3372 3828 4332 4411 4232 4382 4214 3687 3395 3417 3278 2782 3342 2719 2168 2378 2731 2787 2044 1727 1646 1685 1726 1923 1395 1315 1174
0 0 0 9 24 5 53 151 73 116 139 141 217 458 480 522 536 964 1165 1200 1454 2237 3063 3632 4331 4243 4007 4188 4413 3956 3395 3328 2525 2564 1686 1646 1253 1505 2114 2060 1927 1938 1875 1004 1297 1326 938 965 1327
0 0 0 0 12 14 0 3 177 112 55 120 89 159 236 339 542 687 981 1411 1534 2262 2772 3791 4279 4650 4461 3824 2842 2878 1591 907 2015 1709 1626 1096 1294 1383 1261 1595 1757 1790 1474 1405 1308 922 989 1152 916
0 0 0 0 0 0 1 3 169 172 66 60 68 97 126 194 295 431 594 959 1147 2007 2305 3482 4426 4190 3423 2774 1408 1503 1526 771 845 953 1127 1314 1427 1637 1185 1552 1706 1386 1251 1136 1120 1088 828 843 854
0 0 0 0 0 12 0 34 106 127 676 99 101 161 184 174 303 362 568 836 960 1637 2145 3276 3681 3281 2782 2097 1622 843 331 740 644 1178 921 838 919 949 1624 1114 1232 1358 1123 1028 773 1130 943 850 869
0 0 8 6 9 0 5 21 136 120 72 268 392 147 169 295 526 695 572 761 1213 1759 2363 3146 2887 2807 2425 1738 1367 491 352 578 717 1138 1060 957 697 960 1378 1200 1203 941 1012 968 946 803 747 656 557
0 0 2 29 14 15 23 22 122 70 176 371 678 576 220 162 709 883 1233 1114 1689 2090 2852 2480 2537 2465 2141 1780 1506 1055 818 1053 1165 1737 1103 696 720 844 892 701 919 1047 1083 1050 971 749 729 756 633
0 0 0 2 1 4 4 11 0 0 0 0 23 0 267 180 351 829 1258 1331 1951 2144 2535 2508 2498 2536 2142 1557 2332 1960 1784 1314 1065 845 935 816 1308 545 801 788 945 1171 1175 945 1135 757 688 782 646
0 0 0 0 27 31 19 9 27 124 5 0 0 0 59 443 558 553 860 1570 2260 2209 2383 2171 2373 2557 1804 1684 1723 1625 1716 1566 1456 1146 980 1081 1336 1221 1164 1030 1040 1081 1200 1194 940 729 576 534 553
0 0 0 0 5 32 28 13 62 156 38 1 0 0 0 52 502 1164 1179 1877 2413 1944 1996 1512 1799 2084 1579 1476 1764 1511 702 824 1345 1072 1030 1119 1512 1471 1396 1297 1168 1087 986 1161 900 972 746 481 674
0 3 11 10 63 36 80 2 2 0 0 0 0 0 0 133 448 1620 1415 2184 2253 2015 1711 1037 956 1266 1219 1295 1775 1573 1251 953 919 1066 951 1106 1289 1463 1418 1413 1248 941 972 974 693 760 765 738 673
CIN
-576 -413 -241 -66 -8 -7 -4 -7 -0 -1 -3 -2 -49 -87 -0 -63 -9 -8 -2 -4 -1 -14 -41 -0 -0 -1 -0 -0 -0 -0 -0 -0 -0 -0 -0 -0 -0 -0 -0 -0 -0 -0 -0 -0 -0 -1 -0 -0 -0
-452 -203 -88 -53 -2 -2 -0 -4 -0 -0 -1 -2 -2 -1 -7 -27 -101 -13 -0 -2 -3 -11 -33 -15 -0 -0 -0 -0 -1 -1 -0 -0 -0 -0 -0 -0 -0 -0 -0 -0 -0 -0 -0 -0 -0 -0 -1 -8 -3
-519 -232 -61 -7 -0 -1 -1 -0 -0 -0 -21 -7 -10 -3 -17 -2 -7 -3 -1 -2 -1 -7 -19 -3 -0 -0 -0 -0 -0 -0 -0 -0 -0 -0 -0 -0 -0 -1 -0 -1 -0 -0 -0 -0 -0 -0 -0 -8 -8
-65 -108 -25 -0 -0 -0 -0 -0 -0 -0 -40 -22 -18 -20 -3 -6 -5 -5 -5 -0 -5 -1 -21 -0 -0 -0 -0 -0 -0 -0 -0 -0 -0 -0 -0 -0 -0 -0 -0 -0 -0 -0 -0 -0 -0 -5 -10 -16 -14
-64 -306 -17 -47 -2 -0 -0 -2 -0 -0 -0 -31 -17 -5 -1 -1 -0 -1 -0 -0 -0 -3 -17 -1 -0 -0 -0 -0 -0 -0 -0 -0 -0 -0 -1 -0 -0 -0 -0 -0 -0 -2 -11 -8 -11 -17 -25 -26 -20
-138 -46 -4 -8 -0 -29 -0 -0 -1 -1 -40 -50 -56 -38 -3 -0 -1 -0 -12 -4 -0 -1 -5 -4 -0 -0 -0 -0 -0 -0 -0 -0 -0 -0 -0 -0 -0 -0 -0 -0 -1 -10 -16 -16 -17 -18 -30 -32 -25
-159 -44 -7 -39 -63 -26 -41 -1 -0 -6 -43 -33 -66 -76 -25 -6 -4 -0 -4 -1 -1 -0 -1 -2 -16 -0 -0 -0 -0 -0 -0 -0 -0 -0 -0 -0 -0 -1 -4 -5 -7 -14 -13 -13 -12 -4 -19 -18 -19
-309 -147 -24 -53 -14 -83 -180 -0 -1 -35 -20 -48 -70 -78 -68 -35 -4 -5 -1 -18 -1 -1 -2 -1 -1 -0 -0 -0 -0 -0 -0 -0 -0 -0 -0 -0 -0 -4 -5 -7 -3 -11 -22 -21 -15 -10 -12 -14 -10
-93 -32 -5 -53 -2 -8 -4 -5 -11 -27 -16 -24 -33 -80 -92 -80 -9 -6 -13 -7 -6 -4 -0 -2 -1 -2 -5 -3 -0 -0 -0 -0 -0 -0 -2 -7 -19 -43 -331 -37 -127 -12 -19 -34 -26 -18 -8 -4 -6
-14 -0 -9 -18 -1 -145 -286 -75 -7 -1 -0 -2 -54 -84 -115 -92 -44 -8 -18 -13 -1 -6 -3 -0 -2 -3 -8 -1 -16 -1 -0 -5 -7 -6 -14 -17 -12 -34 -93 -361 -107 -11 -17 -25 -15 -28 -15 -31 -39
-6 -1 -0 -13 -5 -165 -201 -56 -276 -128 -5 -30 -71 -107 -134 -103 -67 -51 -16 -27 -2 -7 -2 -8 -6 -11 -9 -40 -12 -12 -17 -9 -7 -5 -6 -12 -8 -147 -9 -132 -123 -21 -26 -19 -10 -18 -14 -25 -28
-5 -5 -1 -21 -47 -45 -1 -52 -255 -274 -243 -43 -79 -97 -125 -110 -86 -72 -48 -65 -22 -19 -3 -42 -65 -34 -21 -66 -6 -17 -6 -16 -59 -29 -6 -8 -12 -4 -1 -7 -7 -22 -44 -24 -24 -29 -20 -18 -19
-5 -0 -0 -20 -3 -9 -26 -32 -57 -31 -36 -67 -92 -88 -109 -97 -86 -82 -70 -69 -29 -25 -12 -2 -42 -25 -5 -30 -18 -48 -45 -32 -17 -22 -35 -8 -12 -11 -7 -5 -4 -12 -20 -27 -13 -5 -10 -16 -9
-9 -0 -1 -5 -0 -6 -33 -3 -28 -1 -32 -70 -78 -85 -85 -65 -58 -65 -66 -52 -40 -25 -19 -1 -21 -14 -6 -3 -6 -6 -45 -37 -11 -27 -38 -22 -27 -26 -10 -16 -4 -6 -27 -8 -36 -16 -12 -17 -13
-1 -0 -1 -0 -53 -45 -41 -8 -17 -2 -1 -24 -38 -42 -36 -39 -39 -47 -51 -30 -22 -24 -15 -12 -11 -5 -5 -1 -0 -0 -8 -7 -7 -35 -20 -14 -27 -6 -11 -15 -23 -28 -14 -4 -14 -16 -21 -8 -13
-0 -1 -1 -13 -41 -0 -20 -0 -9 -10 -1 -0 -0 -1 -3 -10 -14 -27 -47 -30 -32 -12 -38 -44 -19 -17 -10 -1 -1 -0 -6 -9 -8 -22 -44 -38 -9 -7 -18 -17 -19 -6 -5 -11 -16 -17 -23 -17 -18
-1 -1 -16 -8 -94 -134 -42 -9 -10 -5 -2 -0 -1 -0 -2 -1 -1 -7 -14 -9 -13 -26 -21 -10 -19 -12 -3 -2 -1 -2 -3 -3 -13 -39 -27 -27 -13 -9 -16 -9 -6 -7 -9 -10 -7 -10 -18 -33 -44
-0 -30 -1 -9 -53 -36 -42 -8 -14 -0 -0 -6 -0 -4 -3 -14 -21 -4 -13 -24 -12 -24 -38 -35 -20 -8 -24 -19 -3 -2 -6 -9 -1 -27 -34 -19 -17 -10 -17 -20 -17 -24 -19 -23 -38 -33 -32 -14 -4
-1 -4 -1 -31 -27 -44 -36 -40 -19 -19 -0 -1 -3 -26 -14 -29 -4 -1 -7 -9 -2 -4 -9 -23 -18 -2 -2 -5 -5 -0 -1 -1 -14 -6 -14 -10 -10 -21 -7 -8 -10 -19 -18 -19 -11 -7 -6 -3 -8
-0 -2 -1 -7 -0 -12 -18 -14 -1 -10 -19 -1 -0 -31 -22 -12 -59 -57 -21 -8 -2 -2 -12 -3 -6 -7 -1 -1 -0 -1 -8 -9 -18 -23 -11 -10 -7 -18 -3 -2 -7 -19 -10 -24 -10 -9 -7 -2 -16
-0 -0 -0 -3 -0 -11 -7 -13 -239 -8 -0 -13 -4 -16 -19 -31 -66 -64 -40 -21 -1 -2 -5 -3 -5 -5 -3 -1 -4 -9 -6 -6 -17 -5 -32 -20 -18 -12 -3 -1 -2 -4 -7 -8 -19 -10 -11 -0 -1
-0 -0 -0 -0 -0 -0 -0 -5 -100 -14 -11 -18 -39 -40 -7 -29 -39 -51 -37 -2 -0 -4 -2 -9 -2 -2 -2 -3 -2 -12 -14 -30 -12 -9 -38 -45 -17 -8 -7 -2 -1 -3 -7 -9 -6 -8 -5 -1 -0
-0 -0 -0 -0 -0 -0 -2 -6 -50 -2 -19 -54 -42 -40 -18 -15 -20 -31 -38 -11 -1 -5 -1 -4 -1 -2 -8 -15 -44 -17 -8 -39 -31 -25 -8 -5 -22 -18 -5 -0 -3 -5 -4 -6 -6 -3 -4 -8 -1
-0 -0 -0 -0 -0 -0 -0 -2 -45 -49 -2 -29 -22 -4 -2 -2 -6 -3 -13 -20 -6 -8 -2 -1 -9 -12 -21 -38 -46 -77 -143 -24 -44 -13 -34 -37 -33 -19 -20 -19 -4 -1 -3 -4 -7 -5 -3 -4 -5
-0 -0 -0 -0 -0 -0 -0 -0 -7 -22 -17 -18 -198 -234 -1 -9 -3 -1 -9 -21 -20 -16 -4 -9 -26 -26 -40 -55 -54 -131 -159 -67 -39 -4 -4 -9 -26 -5 -23 -7 -0 -2 -3 -4 -5 -7 -10 -11 -7
-0 -0 -0 -2 -0 -0 -0 -2 -10 -3 -17 -25 -16 -36 -9 -27 -21 -10 -10 -32 -23 -17 -7 -18 -42 -43 -57 -51 -41 -70 -66 -13 -3 -3 -10 -24 -15 -4 -2 -5 -1 -1 -2 -2 -3 -7 -9 -10 -12
-0 -0 -0 -0 -0 -4 -6 -12 -0 -0 -0 -0 -9 -0 -15 -10 -4 -19 -5 -47 -36 -22 -21 -27 -36 -28 -52 -71 -11 -15 -21 -19 -9 -8 -7 -5 -1 -20 -13 -3 -1 -2 -6 -13 -8 -10 -12 -6 -6
-0 -0 -0 -0 -0 -1 -0 -7 -1 -17 -9 -2 -0 -0 -6 -10 -7 -25 -7 -34 -41 -27 -24 -51 -35 -16 -60 -50 -51 -35 -15 -10 -3 -0 -0 -0 -1 -0 -0 -0 -1 -3 -4 -5 -9 -7 -14 -18 -9
-0 -0 -0 -0 -0 -0 -1 -51 -30 -11 -12 -3 -0 -0 -0 -19 -32 -8 -9 -47 -48 -37 -22 -80 -34 -12 -48 -51 -31 -27 -94 -53 -6 -4 -1 -1 -0 -0 -1 -1 -2 -3 -4 -5 -4 -4 -9 -14 -3
-0 -2 -0 -0 -2 -4 -0 -1 -3 -0 -0 -0 -0 -0 -0 -33 -21 -17 -13 -19 -44 -33 -22 -96 -112 -59 -56 -55 -23 -40 -51 -62 -16 -1 -1 -0 -0 -0 -2 -3 -3 -5 -4 -7 -5 -4 -3 -4 -8
Wind_Speed
10 14 13 10 8 11 15 16 16 16 18 13 26 15 15 12 9 15 15 8 16 16 14 13 13 14 16 15 16 17 17 16 15 15 15 15 14 12 12 11 11 11 11 11 9 8 7 6 5
13 18 9 8 5 15 14 18 18 14 9 22 25 24 26 27 26 22 15 16 14 14 15 13 13 14 14 14 14 16 16 16 14 13 14 14 13 12 11 11 11 10 10 9 8 6 6 4 3
16 21 9 7 11 16 15 15 11 14 12 20 24 22 17 21 19 13 17 18 14 15 14 11 13 14 14 13 13 15 15 15 13 13 13 12 13 13 12 11 10 9 8 8 7 5 4 3 2
12 11 11 14 20 19 18 17 17 20 20 21 19 15 25 26 24 22 20 14 15 13 15 12 13 13 13 13 13 14 13 13 13 13 11 12 12 12 10 10 9 8 7 6 6 4 3 3 3
17 4 5 15 19 17 17 19 16 16 19 21 22 20 24 28 23 22 21 18 16 15 14 13 13 14 14 13 13 14 13 13 12 11 10 10 10 10 9 8 7 6 6 5 4 3 2 3 3
4 6 7 15 18 19 17 15 17 20 24 21 21 21 21 23 21 21 18 16 16 16 16 14 13 13 13 13 13 12 12 11 10 9 8 8 8 7 7 6 6 5 3 2 2 2 3 3 4
7 9 10 22 23 15 8 19 16 18 21 20 20 21 19 21 18 22 19 16 18 16 15 11 12 13 13 12 12 12 11 11 9 8 7 7 7 8 8 6 5 3 1 2 3 3 4 6 6
3 4 12 3 23 12 16 16 23 20 17 23 22 15 17 18 21 21 20 13 18 15 12 12 11 10 10 10 13 12 11 10 9 8 7 7 9 10 5 1 6 4 3 3 5 5 5 8 8
33 9 8 8 16 20 19 16 18 17 15 16 12 21 21 19 19 20 23 16 11 11 9 10 11 10 8 11 9 10 10 9 8 7 8 8 8 6 15 13 13 9 7 8 8 9 8 8 9
7 3 14 10 13 22 28 9 16 11 13 14 19 24 21 18 14 21 13 13 14 14 14 12 10 11 8 9 11 9 9 8 7 8 8 7 5 2 11 13 16 10 7 10 11 12 10 7 6
4 11 7 18 14 25 30 17 12 24 15 17 24 24 21 18 14 11 19 15 12 15 11 13 8 8 6 4 7 6 6 6 7 7 5 3 1 4 3 3 5 4 8 6 7 7 4 6 5
6 13 14 10 20 12 19 27 22 25 14 20 21 22 20 18 15 13 11 12 11 7 11 14 12 8 8 8 5 5 6 4 3 5 6 3 3 1 1 1 2 4 2 3 2 3 4 5 4
9 14 8 12 17 19 21 18 22 22 14 20 20 20 18 16 14 12 11 11 11 8 6 11 10 5 3 4 4 1 3 3 5 5 5 4 4 2 2 2 3 3 4 3 2 2 4 5 5
11 11 10 15 12 13 15 16 17 16 18 19 18 17 15 15 14 12 11 12 10 8 7 9 10 7 3 3 4 3 1 0 1 3 4 1 2 4 1 1 4 1 4 2 5 4 4 5 6
9 10 9 11 16 13 19 17 15 16 16 17 17 15 15 13 13 13 11 11 10 9 8 7 7 10 8 6 4 2 5 4 2 2 2 5 6 5 2 1 3 4 3 3 4 6 5 6 6
13 14 12 16 19 5 8 12 14 16 16 16 16 15 14 12 13 11 11 10 11 6 8 8 7 10 9 8 5 4 5 6 2 3 3 7 6 5 3 2 4 4 3 4 5 4 5 5 5
14 13 15 14 21 13 4 11 16 17 16 14 14 14 14 13 14 16 14 10 7 8 8 6 6 9 9 7 6 7 6 5 2 1 2 2 3 1 2 4 3 4 4 5 6 5 4 4 6
17 18 21 13 13 15 14 11 15 17 17 14 14 13 14 15 14 15 16 14 12 11 8 8 4 5 11 6 3 2 2 4 5 3 3 6 3 5 3 4 5 5 4 5 5 5 5 5 6
15 12 18 15 23 26 13 16 18 17 17 16 16 14 15 15 17 15 18 18 16 14 10 8 7 4 4 3 3 3 3 4 4 4 5 5 3 4 3 3 4 5 6 6 6 4 4 5 4
19 9 11 15 17 11 17 17 17 16 17 18 17 16 16 16 16 14 13 10 12 12 14 9 10 7 4 3 4 3 3 4 5 6 6 5 4 5 4 3 4 6 5 6 5 4 3 4 4
15 10 10 13 12 3 8 21 11 15 14 18 17 18 18 17 19 16 15 13 13 11 12 9 9 9 6 6 3 4 4 3 3 2 2 4 5 5 5 4 4 4 4 5 4 4 6 5 4
18 11 18 16 13 11 15 13 19 22 18 16 19 19 19 19 19 18 17 15 14 13 11 12 9 9 8 5 2 5 1 3 1 1 5 3 4 4 4 4 4 4 4 7 4 4 4 3 5
12 16 17 12 12 14 14 10 16 16 17 17 20 21 20 22 21 21 19 16 14 16 13 11 10 7 7 6 3 2 4 4 3 4 4 3 5 5 5 3 5 4 4 6 6 5 4 5 4
18 9 14 8 11 14 16 12 7 10 18 17 9 21 20 21 20 19 19 19 14 15 13 12 11 7 6 6 5 3 0 3 3 4 3 4 3 3 5 6 4 3 4 5 5 5 6 4 5
14 12 8 10 12 13 16 15 11 19 19 20 18 32 20 18 18 15 18 19 15 16 13 12 11 9 8 6 5 3 3 2 2 4 3 2 4 2 6 3 2 3 5 5 5 5 6 5 4
13 16 10 13 12 13 13 10 17 14 19 23 26 29 21 21 18 18 15 17 17 16 14 13 12 10 9 7 6 5 3 2 3 2 4 2 3 3 1 0 2 4 5 4 3 4 4 4 2
16 17 18 18 14 7 6 9 10 8 7 4 7 9 17 14 19 21 18 18 18 16 15 14 13 10 9 8 6 6 5 4 2 1 1 3 1 4 6 3 4 5 6 4 5 4 5 3 3
17 17 13 13 10 11 8 10 10 15 9 10 8 5 6 19 20 21 19 20 18 16 15 15 12 11 10 9 9 7 7 6 4 3 3 3 4 3 4 4 5 5 6 5 6 4 6 5 4
15 12 9 13 11 9 10 4 13 11 9 7 7 7 3 9 10 14 14 18 18 17 16 14 13 12 10 8 8 5 4 5 5 4 4 4 4 3 4 5 5 6 8 6 5 5 7 8 3
20 17 11 9 9 8 10 4 13 11 11 9 6 1 6 2 11 15 14 17 18 17 17 15 15 13 11 9 7 7 5 4 3 4 4 3 4 4 4 5 6 7 8 6 6 5 6 5 6
Wind_Direction
264 233 223 249 228 81 69 44 80 77 65 102 138 85 143 230 122 107 135 109 125 110 126 111 110 108 107 106 105 103 107 98 99 99 96 93 95 94 94 93 92 88 87 88 86 86 82 84 84
295 294 252 265 115 85 66 64 63 76 102 81 84 79 74 74 88 109 116 122 115 129 112 112 115 112 101 104 105 105 107 105 103 101 93 92 96 93 93 89 83 86 87 88 85 88 97 99 85
268 265 257 161 85 87 93 96 91 105 69 79 75 81 92 106 109 100 132 108 101 89 99 116 117 115 111 106 106 106 107 106 108 99 98 98 93 93 92 93 92 92 90 90 89 82 78 62 23
353 329 243 87 88 96 104 101 85 84 78 95 101 72 89 98 105 112 110 120 108 111 108 120 126 126 125 122 118 113 113 114 113 110 109 108 113 110 109 110 111 105 96 88 90 87 69 36 13
107 266 122 111 105 100 94 105 101 96 91 95 99 101 94 104 118 121 131 138 124 118 118 124 127 132 133 135 131 125 120 118 120 117 121 119 116 120 122 118 115 109 100 91 83 68 31 5 347
90 248 139 104 105 45 104 84 97 99 102 105 108 110 106 117 123 134 134 138 127 120 115 125 125 125 129 131 131 127 126 122 124 127 128 131 136 139 142 140 131 121 105 64 33 15 338 315 308
320 273 57 79 84 60 292 118 102 106 120 117 117 116 126 132 137 133 143 130 124 117 118 137 130 131 137 137 138 141 138 139 140 140 146 152 164 179 175 163 158 156 125 314 315 319 278 286 286
218 229 108 236 132 161 215 118 130 133 127 129 131 132 144 131 145 120 120 126 127 129 125 131 136 144 148 146 146 149 150 153 160 163 171 186 207 207 182 292 207 194 217 252 270 270 267 269 276
199 291 100 41 103 147 125 115 87 101 128 152 134 144 136 147 140 127 124 122 124 109 124 125 150 154 148 134 149 150 158 165 170 180 194 215 238 156 98 274 279 228 228 239 242 252 257 267 270
184 160 135 168 133 85 359 313 116 135 131 124 122 126 138 152 157 137 151 124 152 144 163 157 167 140 181 153 156 164 169 182 193 198 175 218 266 113 153 198 231 244 235 249 243 249 249 252 258
336 89 87 105 102 131 174 82 90 351 141 125 132 139 149 150 153 157 143 161 141 154 179 148 130 174 152 120 185 170 180 189 196 205 197 181 339 54 273 129 227 225 229 240 198 237 245 247 228
102 57 74 77 63 360 70 92 114 147 237 126 140 140 148 154 156 160 147 143 134 168 144 133 151 204 145 174 177 190 188 148 178 194 186 203 216 88 299 283 275 255 107 84 30 334 354 333 339
113 86 82 99 134 76 69 67 138 181 184 129 137 146 151 155 160 157 155 153 141 169 162 129 112 90 69 248 17 6 129 197 174 176 195 218 192 198 246 343 320 322 350 334 222 266 307 300 281
102 138 168 100 83 115 114 105 111 110 124 129 143 148 156 160 165 158 166 156 164 183 174 141 127 142 151 283 330 322 171 217 220 144 159 112 197 159 290 308 283 335 294 357 341 6 316 300 294
131 132 127 143 108 62 114 100 113 127 136 147 147 156 158 154 163 160 177 164 173 178 176 143 134 156 163 203 238 260 304 237 224 212 188 212 183 218 217 201 282 297 306 306 260 247 247 254 282
169 165 177 143 103 63 64 115 133 153 154 150 165 157 150 147 155 163 177 174 171 169 122 142 176 181 183 179 189 223 245 277 242 192 243 228 207 207 156 218 254 266 291 301 301 289 281 281 260
206 199 149 130 124 143 146 163 160 166 168 167 165 150 151 162 159 145 133 135 135 135 156 181 192 174 176 190 192 210 228 241 321 287 247 144 84 91 189 255 259 250 256 255 268 282 287 300 301
201 210 160 172 173 147 178 158 171 174 161 167 172 162 164 166 162 154 159 162 191 166 189 173 184 228 175 142 227 250 301 303 280 339 342 324 17 307 299 282 271 275 279 269 271 269 286 270 272
214 227 153 234 157 162 161 175 179 181 158 172 169 175 175 175 152 157 160 171 179 165 141 148 139 116 110 127 198 199 230 236 258 240 247 248 256 251 265 255 245 250 244 251 257 268 275 295 290
240 214 213 205 153 186 159 174 188 186 170 172 177 181 185 168 150 161 147 173 153 150 152 156 147 141 176 190 182 231 232 227 211 231 206 215 243 169 202 263 336 322 344 336 301 272 310 305 299
251 243 240 210 148 167 216 155 129 264 194 172 182 182 182 172 164 168 167 176 162 150 149 151 148 164 180 186 186 201 250 246 284 346 77 70 29 347 344 348 324 312 308 288 343 0 312 293 305
232 212 262 239 177 210 177 230 168 216 190 194 189 182 185 178 171 171 177 179 171 154 159 150 160 167 170 134 312 99 356 282 68 268 85 22 9 23 322 286 283 359 345 305 317 337 320 303 287
236 221 231 239 245 233 234 232 153 181 192 199 201 186 191 179 181 177 182 176 174 156 161 148 161 139 123 129 49 32 29 14 14 39 31 348 265 251 239 255 32 347 315 322 325 316 301 296 266
222 261 202 228 255 254 227 222 150 185 207 214 222 201 193 185 183 182 176 168 173 152 157 156 137 136 143 146 156 152 153 49 354 22 331 281 0 286 86 54 34 318 292 309 325 306 298 295 294
206 208 204 223 228 242 232 222 238 184 215 206 160 239 196 189 183 185 175 165 165 155 160 142 151 162 161 175 158 159 129 100 244 215 264 12 287 30 81 51 313 322 306 296 293 307 292 287 318
187 223 218 208 229 230 206 184 223 190 176 194 198 215 194 189 182 178 177 163 157 156 156 155 164 170 173 173 150 104 104 253 217 39 43 344 339 329 35 309 283 296 288 276 302 297 300 299 345
183 236 250 263 270 253 189 195 220 158 161 152 178 215 189 191 184 177 172 156 158 163 161 153 165 180 177 165 150 165 175 195 296 44 13 268 0 329 59 339 298 285 281 285 286 281 318 358 345
220 205 232 252 266 285 245 233 217 154 154 169 184 226 233 192 190 182 176 160 161 166 162 153 168 185 182 167 167 195 182 175 189 187 230 263 263 270 285 291 290 310 305 293 291 296 304 332 332
210 230 217 251 232 266 261 72 101 137 152 143 160 181 200 255 201 179 175 156 162 167 165 161 170 184 184 186 175 160 157 185 178 193 221 239 264 267 272 274 276 283 288 280 281 269 255 267 293
230 200 232 247 254 273 296 298 136 139 146 165 119 175 138 323 293 167 175 159 163 170 168 170 175 182 193 180 173 160 169 193 207 196 225 248 263 264 268 263 269 280 284 280 298 282 306 306 290